Terminal Aerodrome Forecast
Issued by NWS

Home | Current Version | Previous Version | Text Only | Print | Product List | Glossary On
Versions: 1 2 3 4 5 6 7 8 9 10 11 12 13 14 15 16
000
FTUS46 KMTR 291500 AAB
TAFSJC
TAF AMD
KSJC 291517Z 2915/3012 VRB03KT 6SM BR FEW002 SCT005
      TEMPO 2915/2917 1SM BR BKN002
     FM292000 30005KT P6SM FEW200
     FM292300 30010KT P6SM FEW200
     FM300500 VRB03KT P6SM SCT200=

USA.gov is the U.S. government's official web portal to all federal, state and local government web resources and services.